When you browse on this site, cookies collect data to enhance your experience and personalize the content and advertising you see.
Visit our Privacy Policy to learn more. By continuing to use the site, you agree to this use of cookies and data.
  • In Romania
  • List of Countries
  • For 7 days
  • Water Temperature
  • Satellite Maps
  • Weather Map
  • Weather Widgets
  • user-avatar
    Login

    Hourly Weather Aschbach

    Today, 18 April, Thursday

    Time Temperature Precipitation Wind Pressure Humidity
    00:00 +8°C° 0 mm 1 mps 719 mmHg 85%
    01:00 +9°C° 0 mm 1 mps 718 mmHg 81%
    02:00 +8°C° 0 mm 1 mps 718 mmHg 82%
    03:00 +7°C° 0 mm 1 mps 719 mmHg 82%
    04:00 +7°C° 0 mm 1 mps 719 mmHg 83%
    05:00 +7°C° 0 mm 1 mps 719 mmHg 80%
    06:00 +8°C° 0 mm 1 mps 719 mmHg 78%
    07:00 +9°C° 0 mm 1 mps 719 mmHg 75%
    08:00 +11°C° 0 mm 1 mps 719 mmHg 67%
    09:00 +14°C° 0 mm 1 mps 720 mmHg 58%
    10:00 +18°C° 0 mm 1 mps 720 mmHg 50%
    11:00 +19°C° 0 mm 1 mps 720 mmHg 47%
    12:00 +20°C° 0 mm 2 mps 720 mmHg 44%
    13:00 +21°C° 0 mm 2 mps 720 mmHg 41%
    14:00 +21°C° 0 mm 2 mps 720 mmHg 41%
    15:00 +21°C° 0 mm 2 mps 720 mmHg 42%
    16:00 +21°C° 0 mm 2 mps 719 mmHg 42%
    17:00 +19°C° 0 mm 2 mps 719 mmHg 52%
    18:00 +17°C° 0 mm 2 mps 719 mmHg 62%
    19:00 +14°C° 0 mm 2 mps 719 mmHg 72%
    20:00 +13°C° 0 mm 2 mps 720 mmHg 74%
    21:00 +10°C° 0 mm 2 mps 720 mmHg 76%
    22:00 +9°C° 0 mm 2 mps 721 mmHg 78%
    23:00 +8°C° 0 mm 2 mps 721 mmHg 79%

    Tomorrow, 19 April, Friday

    Time Temperature Precipitation Wind Pressure Humidity
    00:00 +9°C° 0 mm 1 mps 721 mmHg 79%
    01:00 +8°C° 0 mm 1 mps 721 mmHg 79%
    02:00 +8°C° 0 mm 1 mps 721 mmHg 79%
    03:00 +7°C° 0 mm 1 mps 722 mmHg 80%
    04:00 +7°C° 0 mm 1 mps 722 mmHg 80%
    05:00 +8°C° 0 mm 1 mps 722 mmHg 77%
    06:00 +9°C° 0 mm 1 mps 722 mmHg 75%
    07:00 +10°C° 0 mm 1 mps 723 mmHg 72%
    08:00 +13°C° 0 mm 1 mps 723 mmHg 64%
    09:00 +16°C° 0 mm 1 mps 723 mmHg 56%
    10:00 +18°C° 0 mm 0 mps 724 mmHg 47%
    11:00 +21°C° 0 mm 1 mps 724 mmHg 44%
    12:00 +22°C° 0 mm 1 mps 724 mmHg 41%
    13:00 +23°C° 0 mm 1 mps 724 mmHg 38%
    14:00 +23°C° 0 mm 1 mps 724 mmHg 39%
    15:00 +23°C° 0 mm 1 mps 723 mmHg 39%
    16:00 +21°C° 0 mm 2 mps 723 mmHg 40%
    17:00 +19°C° 0.1 mm 2 mps 723 mmHg 50%
    18:00 +17°C° 0.1 mm 2 mps 723 mmHg 60%
    19:00 +15°C° 0.1 mm 2 mps 722 mmHg 70%
    20:00 +14°C° 0 mm 1 mps 723 mmHg 74%
    21:00 +12°C° 0 mm 1 mps 723 mmHg 78%
    22:00 +11°C° 0 mm 1 mps 723 mmHg 82%
    23:00 +10°C° 0 mm 1 mps 723 mmHg 81%

    Day after tomorrow, 20 April, Saturday

    Time Temperature Precipitation Wind Pressure Humidity
    00:00 +9°C° 0 mm 1 mps 723 mmHg 81%
    01:00 +9°C° 0 mm 1 mps 723 mmHg 80%
    02:00 +8°C° 0 mm 1 mps 723 mmHg 79%
    03:00 +8°C° 0 mm 1 mps 723 mmHg 78%
    04:00 +8°C° 0 mm 1 mps 723 mmHg 77%
    05:00 +8°C° 0 mm 1 mps 723 mmHg 75%
    06:00 +9°C° 0 mm 1 mps 723 mmHg 72%
    07:00 +10°C° 0 mm 1 mps 723 mmHg 69%
    08:00 +13°C° 0 mm 1 mps 723 mmHg 62%
    09:00 +15°C° 0 mm 1 mps 723 mmHg 54%
    10:00 +19°C° 0 mm 1 mps 723 mmHg 47%
    11:00 +20°C° 0 mm 1 mps 723 mmHg 44%
    12:00 +20°C° 0 mm 2 mps 723 mmHg 41%
    13:00 +21°C° 0 mm 2 mps 723 mmHg 38%
    14:00 +21°C° 0 mm 2 mps 722 mmHg 40%
    15:00 +21°C° 0 mm 3 mps 722 mmHg 41%
    16:00 +21°C° 0 mm 3 mps 722 mmHg 42%
    17:00 +19°C° 0 mm 3 mps 721 mmHg 53%
    18:00 +17°C° 0 mm 3 mps 721 mmHg 64%
    19:00 +16°C° 0 mm 2 mps 721 mmHg 75%
    20:00 +14°C° 0 mm 2 mps 721 mmHg 77%
    21:00 +12°C° 0 mm 2 mps 721 mmHg 78%
    22:00 +11°C° 0 mm 1 mps 721 mmHg 80%
    23:00 +10°C° 0 mm 1 mps 721 mmHg 77%

    21 April, Sunday

    Time Temperature Precipitation Wind Pressure Humidity
    00:00 +9°C° 0 mm 1 mps 721 mmHg 75%
    01:00 +9°C° 0 mm 1 mps 721 mmHg 72%
    02:00 +8°C° 0 mm 1 mps 720 mmHg 73%
    03:00 +8°C° 0 mm 1 mps 720 mmHg 74%
    04:00 +7°C° 0 mm 1 mps 720 mmHg 75%
    05:00 +8°C° 0 mm 1 mps 720 mmHg 74%
    06:00 +9°C° 0 mm 1 mps 719 mmHg 72%
    07:00 +10°C° 0 mm 1 mps 719 mmHg 70%
    08:00 +12°C° 0 mm 1 mps 719 mmHg 64%
    09:00 +14°C° 0 mm 1 mps 719 mmHg 58%
    10:00 +17°C° 0 mm 2 mps 719 mmHg 52%
    11:00 +18°C° 0 mm 2 mps 718 mmHg 49%
    12:00 +19°C° 0 mm 3 mps 718 mmHg 47%
    13:00 +21°C° 0 mm 3 mps 718 mmHg 45%
    14:00 +21°C° 0 mm 3 mps 717 mmHg 47%
    15:00 +21°C° 0 mm 4 mps 717 mmHg 48%
    16:00 +21°C° 0 mm 4 mps 716 mmHg 50%
    17:00 +19°C° 0 mm 3 mps 716 mmHg 57%
    18:00 +17°C° 0 mm 3 mps 716 mmHg 64%
    19:00 +15°C° 0 mm 2 mps 715 mmHg 71%
    20:00 +13°C° 0 mm 2 mps 716 mmHg 72%
    21:00 +12°C° 0 mm 2 mps 716 mmHg 73%
    22:00 +10°C° 0 mm 1 mps 716 mmHg 74%
    23:00 +10°C° 0 mm 1 mps 716 mmHg 73%

    22 April, Monday

    Time Temperature Precipitation Wind Pressure Humidity
    00:00 +9°C° 0 mm 1 mps 715 mmHg 73%
    01:00 +8°C° 0 mm 1 mps 715 mmHg 72%
    02:00 +8°C° 0 mm 1 mps 715 mmHg 73%
    03:00 +8°C° 0 mm 1 mps 715 mmHg 75%
    04:00 +7°C° 0 mm 1 mps 714 mmHg 76%
    05:00 +8°C° 0 mm 1 mps 714 mmHg 74%
    06:00 +9°C° 0 mm 1 mps 714 mmHg 71%
    07:00 +10°C° 0 mm 1 mps 714 mmHg 68%
    08:00 +13°C° 0 mm 1 mps 714 mmHg 60%
    09:00 +15°C° 0 mm 1 mps 714 mmHg 52%
    10:00 +19°C° 0 mm 1 mps 714 mmHg 44%
    11:00 +20°C° 0 mm 1 mps 713 mmHg 42%
    12:00 +20°C° 0 mm 2 mps 713 mmHg 40%
    13:00 +21°C° 0 mm 2 mps 713 mmHg 38%
    14:00 +21°C° 0 mm 3 mps 712 mmHg 40%
    15:00 +21°C° 0 mm 3 mps 711 mmHg 41%
    16:00 +21°C° 0 mm 3 mps 711 mmHg 43%
    17:00 +19°C° 0 mm 3 mps 711 mmHg 53%
    18:00 +18°C° 0 mm 2 mps 710 mmHg 62%
    19:00 +16°C° 0 mm 2 mps 710 mmHg 71%
    20:00 +14°C° 0 mm 2 mps 710 mmHg 72%
    21:00 +13°C° 0 mm 2 mps 710 mmHg 73%
    22:00 +11°C° 0 mm 1 mps 710 mmHg 74%
    23:00 +10°C° 0 mm 1 mps 710 mmHg 72%

    23 April, Tuesday

    Time Temperature Precipitation Wind Pressure Humidity
    00:00 +10°C° 0 mm 1 mps 709 mmHg 71%
    01:00 +9°C° 0 mm 1 mps 709 mmHg 69%
    02:00 +9°C° 0 mm 1 mps 709 mmHg 71%
    03:00 +8°C° 0 mm 1 mps 708 mmHg 72%
    04:00 +8°C° 0 mm 1 mps 708 mmHg 73%
    05:00 +9°C° 0 mm 1 mps 708 mmHg 71%
    06:00 +9°C° 0 mm 1 mps 708 mmHg 70%
    07:00 +9°C° 0 mm 0 mps 707 mmHg 69%
    08:00 +12°C° 0 mm 0 mps 707 mmHg 61%
    09:00 +15°C° 0 mm 0 mps 707 mmHg 53%
    10:00 +19°C° 0 mm 1 mps 707 mmHg 46%
    11:00 +20°C° 0 mm 1 mps 707 mmHg 43%
    12:00 +21°C° 0 mm 1 mps 707 mmHg 40%
    13:00 +23°C° 0 mm 1 mps 707 mmHg 38%
    14:00 +22°C° 0 mm 1 mps 707 mmHg 38%
    15:00 +22°C° 0 mm 1 mps 707 mmHg 39%
    16:00 +20°C° 0 mm 0 mps 707 mmHg 40%
    17:00 +18°C° 0 mm 0 mps 707 mmHg 47%
    18:00 +18°C° 0 mm 1 mps 707 mmHg 55%
    19:00 +15°C° 0 mm 1 mps 707 mmHg 62%
    20:00 +14°C° 0 mm 1 mps 708 mmHg 65%
    21:00 +13°C° 0 mm 1 mps 708 mmHg 69%
    22:00 +12°C° 0 mm 1 mps 709 mmHg 72%
    23:00 +12°C° 0 mm 1 mps 709 mmHg 74%
    Show more